Regional Weather Roundup
Issued by NWS

Home | Current Version | Previous Version | Graphics & Text | Print | Product List | Glossary On
Versions: 1 2 3 4 5 6 7 8 9 10 11 12 13 14 15 16 17 18 19 20 21 22 23 24 25 26 27
000
ASUS45 KCYS 250910
RWRWY

WYOMING REGIONAL WEATHER ROUNDUP
NATIONAL WEATHER SERVICE CHEYENNE WY
300 AM MDT SAT MAR 25 2017

NOTE:  "FAIR" INDICATES FEW OR NO CLOUDS BELOW 12,000 FEET
WITH NO SIGNIFICANT WEATHER AND/OR OBSTRUCTIONS TO VISIBILITY.

WYZ001-251000-
YELLOWSTONE NATIONAL PARK

CITY           SKY/WX    TMP DP  RH WIND       PRES   REMARKS
LK YELLOWSTONE   N/A     30  29  96 CALM      30.05S
W YELLOWSTONE  NOT AVBL

$$
WYZ002>013-054>058-071-098>099-251000-
NORTHERN WYOMING

CITY           SKY/WX    TMP DP  RH WIND       PRES   REMARKS
JACKSON        CLOUDY    34  32  93 S6        30.07S WCI  29
CODY           FAIR      49  25  39 W14       29.92F
GREYBULL       FAIR      48  32  53 SE3       29.89F
WORLAND        FAIR      44  37  76 SE8       29.89F
SHERIDAN       FAIR      44  34  67 N10       29.83S
BUFFALO        MOCLDY    50  21  32 VRB5      29.87R
GILLETTE       FAIR      42  29  59 S20       29.86S
HULETT         FAIR      50  28  43 S16G31    29.88F
NEWCASTLE      FAIR      43  27  52 SE20G25   29.99F

$$
WYZ014>020-022>026-101>103-251000-
CENTRAL WYOMING

CITY           SKY/WX    TMP DP  RH WIND       PRES   REMARKS
BIG PINEY      FAIR      31  28  89 N9        30.08F WCI  23
PINEDALE       PTSUNNY   32  30  93 W3        30.09S
DUBOIS         PTSUNNY   36  28  75 N10G16    30.00F WCI  28
LANDER         FAIR      46  23  40 CALM      29.95F
RIVERTON       FAIR      42  30  62 W12       29.96F
CASPER         FAIR      48  25  40 SW20      29.96S
DOUGLAS        FAIR      37  27  67 SE12      29.97F WCI  29

$$
WYZ021-027>030-104>119-251000-
SOUTHERN WYOMING

CITY           SKY/WX    TMP DP  RH WIND       PRES   REMARKS
EVANSTON       MOCLDY    37  20  50 SW9       30.06F WCI  30
KEMMERER         N/A     36  27  69 W3        30.07F
FORT BRIDGER   FAIR      40  29  63 CALM      30.09F
ROCK SPRINGS   FAIR      40  30  67 S3        30.06S
DIXON            N/A     34  25  67 E13       30.13F WCI  25
RAWLINS        FAIR      42  23  46 SW10      30.06F
SARATOGA       FAIR      34  23  64 SE3       30.10S
LARAMIE        FAIR      27  19  72 S7        30.07S WCI  19
CHEYENNE       FAIR      30  23  75 W8        30.06F WCI  22
TORRINGTON     FAIR      30  25  81 E12       30.02F WCI  20
PINE BLUFFS    FAIR      27  23  86 W6        30.07F WCI  20

$$




USA.gov is the U.S. government's official web portal to all federal, state and local government web resources and services.